Погода в Буор-Сысы

Россия / Республика Саха (Якутия)     66°29′18″N   143°02′57″E
темп.,
°C
ветер,
м/с
пор.,
м/с
влажн.,
%
обл.,
%
осадки,
мм/ч
давл.,
гПа
погр.,
м
6 августа, пт
пт623:00+5сз3581100 0.1 1021591
02:00+5сз2386100 0.0 1023395
05:00+5сз128386 0.1 1023249
08:00+6зюз107488 0.0 1023500
11:00+8ю1261100 0.0 10231083
14:00+11юз125241 0.0 10221227
17:00+14з12445 0.0 10211242
20:00+14зсз21445 0.0 1022940
7 августа, сб
сб723:00+8ссз33685 0.0 102421
02:00+6сз33785 0.0 102516
05:00+6ссз22815 0.0 102611
08:00+10сз116236 0.0 1027254
11:00+15зюз014870 0.0 1026649
14:00+19з013964 0.0 1025892
17:00+21сз113510 0.0 10251018
20:00+22зсз123759 0.0 1024812
8 августа, вс
вс823:00+14ссз225965 0.0 102511
02:00+13ссз226327 0.0 102511
05:00+11ссз22715 0.0 102511
08:00+17сз115113 0.0 1025176
11:00+21зсз114151 0.0 1024660
14:00+24сз123426 0.0 10221109
17:00+26ссз22305 0.0 10201258
20:00+25ссз35355 0.0 1020260
9 августа, пн
пн923:00+17ссз335430 0.0 102011
02:00+15ссз22667 0.0 102011
05:00+13ссз22715 0.0 102011
08:00+19сз11505 0.0 1020160
11:00+23ююв104053 0.0 1019618
14:00+26ююв11305 0.0 10171110
17:00+28сз012433 0.0 10151322
20:00+27сз01355 0.0 101511
10 августа, вт
вт1023:00+18с115543 0.0 101511
02:00+17ссв115766 0.0 101511
05:00+16ссв115859 0.0 101511
08:00+23сз003459 0.0 1016118
11:00+26зюз012927 0.0 1015648
14:00+29зсз112459 0.0 10141382
17:00+30с13215 0.0 10132132
20:00+29ссв222813 0.0 101223